[[{"header":{"parameterUnit":"m.s-1","parameterCategory":2,"la1":30.2991,"la2":30.254,"lo1":-89.0895,"lo2":-89.0444,"dy":0.0017,"dx":0.0017,"nx":28,"ny":28,"refTime":"2026-02-09T09:00:00:Z","depth":"0","parameterNumber":2,"parameterNumberName":"U-component_of_CURRENTS"},"data":[0,0,0,0,0,0,0,0,0,0,0,0,0,0,0,0,0,0,0,0,0,0,0,0,0,0,0,0,0,0,0,0,0,0,0,0,0,0,0,0,0,0,0,0,0,0,0,0,0,0,0,0,0,0,0,0,0,0,0.2378,0.2379,0,0.2436,0.2436,0.2437,0.2458,0.2458,0.2458,0.2458,0.2464,0.2464,0.2464,0,0,0,0,0,0,0,0,0,0,0,0,0,0.2284,0.2285,0.2378,0.2379,0.238,0.2436,0.2436,0.2437,0.2458,0.2458,0.2458,0.2458,0.2464,0.2464,0.2464,0,0,0,0,0,0,0,0,0,0,0,0,0,0.2329,0.2285,0.2378,0.2398,0.2401,0.2436,0.2436,0.2437,0.2458,0.2458,0.2458,0.2458,0.2464,0.2464,0.2464,0.2466,0,0,0.2465,0.2465,0,0,0,0,0,0,0,0,0.2327,0.2332,0.2394,0.2397,0.24,0.2441,0.2406,0.2445,0.2458,0.2434,0.2458,0.2458,0.2453,0.2454,0.2463,0.2466,0.2466,0.2465,0.2465,0.2465,0.2465,0,0,0,0,0,0,0,0.2323,0.233,0.2399,0.2395,0.2399,0.2404,0.2411,0.2413,0.244,0.2436,0.2438,0.2448,0.2454,0.2462,0.2463,0.2466,0.2465,0.2465,0.2465,0.2465,0.2609,0.2612,0,0,0,0,0,0,0.2321,0.2327,0.2397,0.2401,0.2365,0.2406,0.2413,0.2426,0.2441,0.2445,0.2448,0.2449,0.2462,0.2462,0.2463,0.257,0.2465,0.2465,0.2465,0.2605,0.261,0.2614,0,0,0,0,0,0,0.2319,0.2327,0.2395,0.2366,0.2376,0.2408,0.2423,0.2428,0.244,0.2451,0.2453,0.2456,0.2462,0.2463,0.2486,0.2566,0.2465,0.2466,0.2601,0.2607,0.2612,0.2716,0,0,0,0,0,0,0.2316,0.2326,0.2335,0.2367,0.2377,0.2424,0.2423,0.2429,0.2447,0.2448,0.2458,0.2459,0.2462,0.2486,0.2486,0.2564,0.2466,0.2596,0.2603,0.261,0.2708,0.2724,0.2739,0,0,0,0,0,0.2312,0.2359,0.2335,0.2343,0.2389,0.2425,0.2431,0.2452,0.2447,0.246,0.2474,0.2459,0.2532,0.2487,0.2487,0.2568,0.2593,0.2601,0.2609,0.2701,0.2721,0.2738,0,0,0,0,0,0,0.2352,0.2366,0.2341,0.2393,0.2397,0.243,0.2453,0.2452,0.2473,0.2472,0.2475,0.2477,0.2543,0.2533,0.2484,0.2636,0.2572,0.2581,0.2643,0.2661,0.2676,0.2764,0.2466,0,0,0,0,0,0.2352,0.2373,0.2378,0.2416,0.2415,0.2421,0.2437,0.2443,0.2466,0.2475,0.2485,0.2517,0.2579,0.2595,0.2629,0.268,0.2702,0.2744,0.276,0.2772,0.2849,0.2909,0.2937,0.2641,0.2641,0.264,0,0,0.2387,0.2389,0.2408,0.2422,0.2423,0.2473,0.2432,0.246,0.2528,0.2471,0.2555,0.2557,0.2603,0.2687,0.2717,0.2684,0.2867,0.2783,0.2793,0.2865,0.2921,0.295,0.2975,0.2646,0.2645,0.2644,0,0,0.2476,0.245,0.2496,0.2505,0.2505,0.2507,0.2513,0.2529,0.2557,0.261,0.2625,0.2695,0.2721,0.2819,0.2864,0.2987,0.2944,0.2964,0.3111,0.3167,0.3192,0.3214,0.3264,0.329,0.2971,0.2972,0.2972,0,0.2522,0.2554,0.2518,0.2568,0.2584,0.253,0.2587,0.263,0.2661,0.2686,0.2654,0.2783,0.283,0.299,0.3069,0.3034,0.3021,0.3026,0.3187,0.3209,0.323,0.3276,0.3303,0.2978,0.2977,0.2976,0.2976,0,0.264,0.2663,0.2692,0.2724,0.2744,0.2771,0.2802,0.2824,0.2819,0.2851,0.2952,0.3011,0.3088,0.313,0.3157,0.3339,0.3265,0.319,0.3134,0.3267,0.3305,0.3332,0.2986,0.2984,0.2982,0.2981,0,0,0.2737,0.2766,0.2772,0.2768,0.2807,0.2818,0.2935,0.2985,0.3027,0.3086,0.3165,0.3354,0.3329,0.3391,0.3407,0.3512,0.3682,0.343,0.343,0.3474,0.3776,0.369,0.371,0.3579,0.3584,0.3589,0.3735,0,0.2819,0.2898,0.2912,0.2978,0.2995,0.2992,0.3084,0.3136,0.3159,0.3218,0.3323,0.3396,0.344,0.3452,0.3583,0.3638,0.3758,0.365,0.3651,0.3655,0.3556,0.3742,0.3658,0.3777,0.3761,0.3765,0.3768,0,0.2905,0.2929,0.3001,0.3014,0.3023,0.3075,0.3111,0.319,0.3294,0.3314,0.3417,0.3443,0.3667,0.363,0.3874,0.3767,0.3834,0.3881,0.3882,0.3805,0.3622,0.3649,0.3826,0.3728,0.3809,0.3805,0.3803,0,0.2892,0.2971,0.2994,0.3014,0.3065,0.3092,0.3117,0.3204,0.3243,0.3362,0.3377,0.3571,0.3639,0.3788,0.3929,0.3884,0.4132,0.4049,0.4053,0.4044,0.3992,0.3969,0.4085,0.4256,0.4256,0.4255,0.4255,0,0.2925,0.2939,0.2974,0.2984,0.3001,0.3055,0.3085,0.3142,0.3226,0.3265,0.3405,0.3471,0.3676,0.3812,0.3949,0.4094,0.4144,0.4168,0.4111,0.4021,0.4,0.3922,0.3859,0.426,0.4259,0.4258,0.4257,0,0.2885,0.292,0.2931,0.2975,0.2984,0.2986,0.303,0.3043,0.3143,0.3202,0.324,0.3418,0.3599,0.3785,0.4014,0.4086,0.4141,0.427,0.4155,0.4086,0.3982,0.3926,0.3908,0.3771,0.433,0.4329,0.4328,0,0.2861,0.2869,0.2893,0.2873,0.288,0.2895,0.2894,0.2987,0.3005,0.3161,0.3176,0.3369,0.3487,0.3792,0.3985,0.4204,0.4097,0.4214,0.4174,0.4051,0.3947,0.3781,0.3654,0.4142,0.414,0.4139,0.4137,0,0.2797,0.2802,0.2794,0.2774,0.2755,0.2748,0.2761,0.2771,0.2877,0.2949,0.3043,0.3156,0.3461,0.3661,0.3934,0.4059,0.401,0.4181,0.4102,0.3902,0.3689,0.3498,0.3953,0.4122,0.4124,0.4125,0.4126,0.4126,0.271,0.2683,0.2664,0.2636,0.2617,0.2574,0.2537,0.2575,0.2606,0.2693,0.2873,0.3031,0.3401,0.3786,0.3856,0.3952,0.3895,0.3937,0.391,0.3776,0.3569,0.3995,0.4043,0.4044,0.4045,0.4046,0.4047,0,0.2576,0.2556,0.2523,0.2464,0.2397,0.2444,0.2416,0.2371,0.2368,0.2548,0.2656,0.3033,0.3288,0.3562,0.382,0.3736,0.3578,0.3646,0.3436,0.3342,0.3799,0.3714,0.3633,0.3633,0.3633,0.3633,0.3633,0.3633,0.2487,0.2409,0.2405,0.2262,0.2225,0.2115,0.2082,0.2055,0.2147,0.2289,0.2499,0.2745,0.3187,0.3596,0.3646,0.3563,0.3265,0.3163,0.3072,0.3449,0.3474,0.3497,0.3405,0.3261,0.326,0.2512,0.2507,0.2503]},{"header":{"parameterUnit":"m.s-1","parameterCategory":2,"la1":30.2991,"la2":30.254,"lo1":-89.0895,"lo2":-89.0444,"dy":0.0017,"dx":0.0017,"nx":28,"ny":28,"refTime":"2026-02-09T09:00:00:Z","depth":"0","parameterNumber":3,"parameterNumberName":"V-component_of_CURRENTS"},"data":[0,0,0,0,0,0,0,0,0,0,0,0,0,0,0,0,0,0,0,0,0,0,0,0,0,0,0,0,0,0,0,0,0,0,0,0,0,0,0,0,0,0,0,0,0,0,0,0,0,0,0,0,0,0,0,0,0,0,-0.012,-0.0121,0,-0.0194,-0.0195,-0.0195,-0.0243,-0.0243,-0.0243,-0.0244,-0.0308,-0.031,-0.0311,0,0,0,0,0,0,0,0,0,0,0,0,0,-0.0066,-0.0066,-0.012,-0.0121,-0.0122,-0.0194,-0.0195,-0.0196,-0.0243,-0.0243,-0.0244,-0.0244,-0.0308,-0.031,-0.0311,0,0,0,0,0,0,0,0,0,0,0,0,0,-0.0109,-0.0066,-0.0119,-0.0154,-0.0158,-0.0193,-0.0195,-0.0196,-0.0243,-0.0243,-0.0244,-0.0244,-0.0307,-0.031,-0.0312,-0.0316,0,0,-0.0318,-0.0319,0,0,0,0,0,0,0,0,-0.0107,-0.0111,-0.0148,-0.0152,-0.0156,-0.021,-0.02,-0.0236,-0.0243,-0.021,-0.0244,-0.0244,-0.0274,-0.0279,-0.0292,-0.0319,-0.0321,-0.0318,-0.032,-0.0321,-0.0321,0,0,0,0,0,0,0,-0.0103,-0.0108,-0.0149,-0.0149,-0.0154,-0.0182,-0.0188,-0.0207,-0.0238,-0.0213,-0.0217,-0.0225,-0.0277,-0.029,-0.0294,-0.0322,-0.0318,-0.032,-0.0322,-0.0322,-0.0209,-0.0205,0,0,0,0,0,0,-0.0092,-0.0105,-0.0146,-0.0151,-0.0132,-0.0182,-0.0189,-0.0192,-0.0239,-0.0246,-0.0225,-0.0227,-0.0286,-0.0291,-0.0296,-0.0159,-0.0321,-0.0323,-0.0324,-0.0213,-0.0208,-0.0203,0,0,0,0,0,0,-0.009,-0.0095,-0.0143,-0.013,-0.0139,-0.0182,-0.0185,-0.0193,-0.0204,-0.0248,-0.0255,-0.0227,-0.0286,-0.0293,-0.0287,-0.0168,-0.0324,-0.0326,-0.0218,-0.0212,-0.0206,0.0022,0,0,0,0,0,0,-0.0088,-0.0093,-0.0087,-0.0129,-0.0139,-0.0135,-0.0185,-0.0194,-0.0209,-0.0212,-0.0252,-0.0259,-0.0287,-0.0284,-0.029,-0.0174,-0.0327,-0.0224,-0.0215,-0.0208,0.0009,0.0035,0.0058,0,0,0,0,0,-0.0086,-0.0037,-0.0086,-0.0091,-0.013,-0.0133,-0.0139,-0.0173,-0.0208,-0.019,-0.0219,-0.0257,-0.0234,-0.0284,-0.0291,-0.0173,-0.0228,-0.0218,-0.0208,-0.0002,0.003,0.0057,0,0,0,0,0,0,0.0031,-0.004,-0.0093,-0.0061,-0.0097,-0.0141,-0.012,-0.0167,-0.0179,-0.018,-0.0236,-0.0243,-0.0176,-0.0222,-0.0274,-0.0114,-0.0223,-0.0215,-0.0064,-0.0034,-0.001,0.0084,-0.0329,0,0,0,0,0,0.0044,0.0045,-0.0028,0.0005,-0.0016,-0.008,-0.0088,-0.0118,-0.014,-0.0148,-0.0176,-0.018,-0.0141,-0.0132,-0.0124,-0.0069,-0.0111,0.0014,0.0039,0.006,0.0134,0.0145,0.0178,-0.0172,-0.0172,-0.0172,0,0,0.0117,0.0065,0.0078,0.0025,-0.0007,0.0033,-0.0083,-0.0076,-0.0012,-0.0151,-0.007,-0.0108,-0.0111,-0.002,0.0008,-0.0046,0.0127,0.0072,0.009,0.0154,0.0159,0.0193,0.0223,-0.0165,-0.0166,-0.0167,0,0,0.0282,0.0193,0.0255,0.0218,0.0161,0.0122,0.0125,0.0073,0.0077,0.0113,0.0072,0.0114,0.0109,0.0176,0.0202,0.0364,0.0253,0.0346,0.0551,0.0561,0.059,0.0615,0.0562,0.0581,0.0362,0.0362,0.0362,0,0.0392,0.0405,0.0282,0.0324,0.0322,0.0177,0.026,0.0257,0.0226,0.0259,0.0177,0.0261,0.0245,0.042,0.0491,0.0434,0.0367,0.0436,0.0594,0.0619,0.0641,0.0579,0.0597,0.0374,0.0373,0.0372,0.037,0,0.0582,0.0586,0.0622,0.0615,0.0609,0.0639,0.0594,0.0608,0.056,0.0553,0.0655,0.062,0.0674,0.069,0.0646,0.0825,0.0699,0.0615,0.052,0.069,0.0613,0.0628,0.0392,0.0387,0.0384,0.0381,0,0,0.0842,0.0779,0.0786,0.078,0.0741,0.0747,0.0867,0.0914,0.0978,0.0965,0.1075,0.1172,0.1094,0.1124,0.1064,0.11,0.1183,0.0936,0.093,0.0886,0.1138,0.1014,0.1015,0.1088,0.1093,0.1097,0.1004,0,0.1028,0.112,0.1066,0.1169,0.1182,0.1104,0.1213,0.124,0.1225,0.1284,0.1295,0.1353,0.1275,0.127,0.1318,0.1205,0.1238,0.1214,0.0981,0.0976,0.0848,0.1037,0.0978,0.0889,0.1017,0.1019,0.1021,0,0.1192,0.1213,0.1336,0.1334,0.1348,0.1419,0.1478,0.1556,0.1623,0.1614,0.1683,0.162,0.1727,0.1579,0.1566,0.1524,0.1393,0.1294,0.1285,0.1122,0.0884,0.0749,0.0908,0.0675,0.1042,0.104,0.1039,0,0.1285,0.1374,0.1453,0.1456,0.1485,0.1558,0.1593,0.166,0.1722,0.1803,0.1827,0.1896,0.1889,0.181,0.1626,0.1576,0.1532,0.1415,0.1199,0.1182,0.1077,0.1045,0.1004,0.1439,0.1439,0.144,0.144,0,0.14,0.1452,0.149,0.151,0.1629,0.1629,0.1762,0.1803,0.1892,0.1988,0.1979,0.2047,0.1939,0.1875,0.1707,0.1508,0.1592,0.1308,0.1197,0.1146,0.1122,0.0864,0.0737,0.1436,0.1437,0.1438,0.1438,0,0.1424,0.1454,0.1526,0.1608,0.1641,0.1709,0.1819,0.1913,0.1978,0.2099,0.2129,0.216,0.2083,0.1933,0.1771,0.1584,0.1256,0.1307,0.1228,0.1114,0.0689,0.0576,0.0453,0.033,0.1077,0.1074,0.1072,0,0.1429,0.1467,0.1569,0.1624,0.1657,0.1761,0.1846,0.1938,0.2037,0.2168,0.2238,0.2215,0.223,0.1946,0.1626,0.1332,0.1145,0.1048,0.1002,0.0735,0.0527,0.0456,0.0358,0.0915,0.0912,0.0909,0.0907,0,0.1446,0.1482,0.1543,0.1652,0.1743,0.186,0.1984,0.2074,0.2203,0.2303,0.2417,0.2444,0.2185,0.1895,0.1479,0.1251,0.086,0.0975,0.0753,0.0493,0.0367,0.0167,0.0847,0.0881,0.0884,0.0886,0.0887,0.0888,0.1457,0.1504,0.159,0.1695,0.1803,0.1949,0.2054,0.2196,0.235,0.2515,0.2537,0.2601,0.2174,0.1616,0.126,0.0568,0.0631,0.0374,0.028,0.0249,0.011,0.0716,0.0586,0.0587,0.0588,0.0588,0.0589,0,0.1473,0.1536,0.1633,0.1765,0.1884,0.1945,0.2146,0.2265,0.2443,0.2593,0.2691,0.2529,0.1939,0.1362,0.045,-0.0017,-0.0166,-0.0261,-0.0348,-0.04,0.0183,0.0153,-0.0142,-0.0141,-0.0141,-0.0141,-0.0141,-0.014,0.1487,0.1571,0.1628,0.1809,0.1907,0.2081,0.22,0.2372,0.2525,0.2674,0.2723,0.2768,0.2322,0.0754,-0.035,-0.0591,-0.0892,-0.0975,-0.11,-0.0704,-0.0651,-0.06,-0.0655,-0.1114,-0.1115,-0.1642,-0.1647,-0.1652]}],[{"header":{"parameterUnit":"m.s-1","parameterCategory":2,"la1":30.2991,"la2":30.254,"lo1":-89.0895,"lo2":-89.0444,"dy":0.0017,"dx":0.0017,"nx":28,"ny":28,"refTime":"2026-02-09T09:00:00:Z","depth":"2","parameterNumber":2,"parameterNumberName":"U-component_of_CURRENTS"},"data":[0,0,0,0,0,0,0,0,0,0,0,0,0,0,0,0,0,0,0,0,0,0,0,0,0,0,0,0,0,0,0,0,0,0,0,0,0,0,0,0,0,0,0,0,0,0,0,0,0,0,0,0,0,0,0,0,0,0,0.1946,0.1947,0,0.1985,0.1986,0.1986,0.1992,0.1992,0.1992,0.1992,0.2016,0.2016,0.2017,0,0,0,0,0,0,0,0,0,0,0,0,0,0.1862,0.1864,0.1946,0.1947,0.1947,0.1985,0.1986,0.1986,0.1992,0.1992,0.1992,0.1992,0.2015,0.2016,0.2017,0,0,0,0,0,0,0,0,0,0,0,0,0,0.1898,0.1864,0.1946,0.1956,0.1958,0.1985,0.1986,0.1986,0.1992,0.1992,0.1992,0.1991,0.2015,0.2016,0.2017,0.2031,0,0,0.2021,0.2022,0,0,0,0,0,0,0,0,0.1896,0.1901,0.1954,0.1956,0.1957,0.1985,0.1965,0.2001,0.1992,0.1977,0.1992,0.1991,0.2005,0.2007,0.2013,0.2032,0.2033,0.2021,0.2022,0.2023,0.2023,0,0,0,0,0,0,0,0.1894,0.1899,0.196,0.1955,0.1957,0.1955,0.1959,0.1972,0.1991,0.1979,0.198,0.1987,0.2006,0.2012,0.2014,0.2033,0.2021,0.2022,0.2023,0.2024,0.2088,0.2089,0,0,0,0,0,0,0.1894,0.1897,0.1959,0.1961,0.1928,0.1956,0.1962,0.1975,0.1991,0.1994,0.1987,0.1987,0.201,0.2012,0.2015,0.2077,0.2023,0.2024,0.2024,0.2087,0.2088,0.2089,0,0,0,0,0,0,0.1892,0.1899,0.1957,0.1931,0.1938,0.1958,0.1973,0.1976,0.1991,0.1998,0.2,0.2,0.201,0.2013,0.2035,0.2076,0.2024,0.2025,0.2086,0.2087,0.2088,0.2173,0,0,0,0,0,0,0.189,0.1898,0.1912,0.1931,0.194,0.1983,0.1974,0.1977,0.1996,0.1997,0.201,0.2011,0.201,0.2033,0.2036,0.2077,0.2026,0.2084,0.2086,0.2088,0.2169,0.2177,0.2184,0,0,0,0,0,0.1887,0.1902,0.1913,0.192,0.1957,0.1984,0.1989,0.2,0.1997,0.201,0.2017,0.2011,0.2046,0.2035,0.2038,0.2081,0.2083,0.2086,0.2088,0.2165,0.2175,0.2184,0,0,0,0,0,0,0.1868,0.1906,0.1917,0.1943,0.1968,0.1986,0.1999,0.2007,0.2023,0.2024,0.2024,0.2026,0.2063,0.2053,0.204,0.2101,0.2065,0.2068,0.2122,0.2132,0.2139,0.211,0.2027,0,0,0,0,0,0.1873,0.1896,0.193,0.1949,0.1965,0.1985,0.1998,0.2009,0.2024,0.2031,0.2041,0.2052,0.2074,0.2086,0.2098,0.2131,0.2124,0.2158,0.2166,0.2173,0.2149,0.2188,0.2197,0.2096,0.2096,0.2096,0,0,0.1866,0.1893,0.1903,0.1947,0.1965,0.1991,0.1992,0.2019,0.2052,0.2032,0.2074,0.208,0.2087,0.2128,0.2143,0.2126,0.2202,0.2175,0.2181,0.2154,0.2191,0.2201,0.221,0.2098,0.2097,0.2097,0,0,0.1871,0.1895,0.1922,0.1944,0.1984,0.2,0.2011,0.2043,0.2074,0.2105,0.2112,0.2136,0.2158,0.2183,0.2195,0.2247,0.2241,0.2257,0.2277,0.2317,0.2326,0.2333,0.2359,0.2368,0.2263,0.2263,0.2263,0,0.1865,0.1898,0.1931,0.1961,0.1982,0.2005,0.2036,0.2072,0.2108,0.2136,0.2124,0.2166,0.2183,0.2239,0.2258,0.2267,0.2276,0.225,0.2328,0.2335,0.2341,0.2366,0.2375,0.2267,0.2267,0.2266,0.2266,0,0.1888,0.1914,0.1928,0.1976,0.2011,0.203,0.209,0.2128,0.2153,0.2177,0.2232,0.2247,0.2269,0.2292,0.2289,0.2352,0.2341,0.2337,0.2308,0.2357,0.2379,0.2387,0.2273,0.2272,0.227,0.2269,0,0,0.1853,0.1931,0.1929,0.1955,0.2017,0.2041,0.2116,0.218,0.2214,0.2251,0.2296,0.234,0.2338,0.2349,0.2368,0.2391,0.2463,0.238,0.238,0.2409,0.2543,0.2527,0.2534,0.2479,0.248,0.2481,0.255,0,0.1852,0.1905,0.1953,0.1991,0.2021,0.2078,0.2133,0.2199,0.2252,0.23,0.2341,0.2378,0.2371,0.2386,0.2417,0.2453,0.2482,0.2444,0.2484,0.2484,0.247,0.2542,0.2352,0.2396,0.2557,0.2558,0.2559,0,0.1847,0.1885,0.1936,0.2001,0.2019,0.2058,0.2145,0.2197,0.2287,0.2331,0.2382,0.2403,0.2469,0.2441,0.2522,0.2499,0.2519,0.2529,0.2533,0.2483,0.2483,0.2368,0.2403,0.2571,0.257,0.2569,0.2568,0,0.1792,0.1861,0.1902,0.1921,0.2006,0.206,0.2108,0.2205,0.2264,0.2359,0.2402,0.2461,0.2513,0.2539,0.2586,0.2559,0.2654,0.2631,0.2629,0.2629,0.2453,0.2434,0.2668,0.2668,0.2668,0.2668,0.2668,0,0.1761,0.1775,0.1882,0.1894,0.1937,0.2027,0.2086,0.2154,0.2264,0.2321,0.2412,0.2467,0.2538,0.2605,0.2612,0.2662,0.2694,0.2635,0.265,0.2479,0.2463,0.2589,0.2579,0.267,0.267,0.2669,0.2669,0,0.1688,0.1748,0.1782,0.1881,0.1914,0.1948,0.2071,0.2115,0.2237,0.2327,0.2364,0.2506,0.2598,0.2663,0.2726,0.2717,0.2744,0.2748,0.2542,0.253,0.2677,0.2671,0.2743,0.2743,0.2743,0.2743,0.2743,0,0.1648,0.1669,0.1754,0.179,0.1842,0.1913,0.1959,0.2081,0.2153,0.2333,0.2376,0.2518,0.259,0.271,0.2718,0.2754,0.2781,0.259,0.2499,0.268,0.2688,0.2681,0.2674,0.2304,0.2301,0.2298,0.2296,0,0.1582,0.1619,0.1663,0.1727,0.1787,0.1842,0.1943,0.1987,0.213,0.2218,0.2351,0.2425,0.257,0.2536,0.2614,0.2594,0.2568,0.2533,0.279,0.2323,0.2275,0.228,0.2286,0.227,0.2272,0.2274,0.2276,0.2277,0.1532,0.1543,0.1616,0.1667,0.1732,0.1794,0.1802,0.1906,0.1977,0.2083,0.2216,0.2268,0.2352,0.2371,0.2333,0.2319,0.2476,0.2361,0.2366,0.2375,0.2321,0.2277,0.2261,0.2263,0.2265,0.2267,0.2269,0,0.1486,0.1515,0.1561,0.1618,0.165,0.1728,0.1797,0.1773,0.1795,0.1923,0.1997,0.1906,0.1935,0.2024,0.1973,0.2001,0.1937,0.192,0.1812,0.1842,0.1868,0.1782,0.1582,0.1579,0.1577,0.1574,0,0,0.1463,0.1473,0.149,0.1518,0.1579,0.159,0.1607,0.1569,0.1616,0.16,0.1635,0.1807,0.1957,0.172,0.1727,0.1642,0.1711,0.1582,0.2143,0.2045,0.2066,0.2149,0.2056,0,0,0,0,0]},{"header":{"parameterUnit":"m.s-1","parameterCategory":2,"la1":30.2991,"la2":30.254,"lo1":-89.0895,"lo2":-89.0444,"dy":0.0017,"dx":0.0017,"nx":28,"ny":28,"refTime":"2026-02-09T09:00:00:Z","depth":"2","parameterNumber":3,"parameterNumberName":"V-component_of_CURRENTS"},"data":[0,0,0,0,0,0,0,0,0,0,0,0,0,0,0,0,0,0,0,0,0,0,0,0,0,0,0,0,0,0,0,0,0,0,0,0,0,0,0,0,0,0,0,0,0,0,0,0,0,0,0,0,0,0,0,0,0,0,-0.0045,-0.0045,0,-0.0096,-0.0096,-0.0097,-0.0138,-0.0138,-0.0138,-0.0138,-0.0227,-0.0229,-0.0231,0,0,0,0,0,0,0,0,0,0,0,0,0,-0.0032,-0.0032,-0.0045,-0.0045,-0.0046,-0.0095,-0.0096,-0.0097,-0.0138,-0.0138,-0.0138,-0.0139,-0.0226,-0.0229,-0.0231,0,0,0,0,0,0,0,0,0,0,0,0,0,-0.0057,-0.0032,-0.0045,-0.007,-0.0073,-0.0095,-0.0096,-0.0097,-0.0138,-0.0138,-0.0138,-0.0139,-0.0226,-0.0229,-0.0232,-0.0244,0,0,-0.0242,-0.0243,0,0,0,0,0,0,0,0,-0.0056,-0.0058,-0.0066,-0.0069,-0.0072,-0.0109,-0.0124,-0.0148,-0.0137,-0.0115,-0.0138,-0.0139,-0.019,-0.0196,-0.0207,-0.0248,-0.0252,-0.0242,-0.0244,-0.0245,-0.0246,0,0,0,0,0,0,0,-0.0054,-0.0056,-0.0067,-0.0067,-0.007,-0.0096,-0.01,-0.0129,-0.0152,-0.0117,-0.012,-0.0122,-0.0192,-0.0203,-0.0209,-0.0253,-0.0242,-0.0245,-0.0247,-0.0248,-0.0325,-0.0326,0,0,0,0,0,0,-0.0041,-0.0054,-0.0065,-0.0068,-0.0062,-0.0096,-0.01,-0.0098,-0.0151,-0.0158,-0.0122,-0.0124,-0.0198,-0.0205,-0.0212,-0.0243,-0.0245,-0.0248,-0.025,-0.0325,-0.0325,-0.0326,0,0,0,0,0,0,-0.004,-0.0041,-0.0063,-0.0061,-0.0066,-0.0095,-0.0093,-0.0099,-0.0111,-0.0154,-0.0162,-0.0127,-0.0198,-0.0208,-0.0236,-0.0246,-0.025,-0.0253,-0.0325,-0.0325,-0.0326,-0.0296,0,0,0,0,0,0,-0.0039,-0.004,-0.0038,-0.006,-0.0065,-0.0072,-0.0093,-0.01,-0.0111,-0.0114,-0.0161,-0.017,-0.0199,-0.0231,-0.0239,-0.0251,-0.0255,-0.0325,-0.0325,-0.0325,-0.0297,-0.0295,-0.0294,0,0,0,0,0,-0.0039,-0.0034,-0.0038,-0.0039,-0.0059,-0.0072,-0.0077,-0.0101,-0.0111,-0.0114,-0.0145,-0.0169,-0.0239,-0.0233,-0.0243,-0.0256,-0.0325,-0.0325,-0.0325,-0.0297,-0.0295,-0.0294,0,0,0,0,0,0,-0.0035,-0.0038,-0.0043,-0.0041,-0.0052,-0.0078,-0.0084,-0.0097,-0.0123,-0.0129,-0.0168,-0.0179,-0.0209,-0.0233,-0.0226,-0.0278,-0.0287,-0.0289,-0.0262,-0.0261,-0.0259,-0.0258,-0.0258,0,0,0,0,0,-0.0029,-0.0024,-0.0034,-0.0035,-0.0036,-0.0058,-0.0067,-0.0081,-0.0105,-0.0117,-0.0148,-0.0184,-0.0218,-0.0238,-0.0269,-0.0295,-0.0316,-0.031,-0.0308,-0.0307,-0.0312,-0.0346,-0.0348,-0.0327,-0.0327,-0.0327,0,0,-0.0035,-0.0031,-0.0034,-0.0034,-0.0045,-0.005,-0.0065,-0.0075,-0.0087,-0.0123,-0.015,-0.0178,-0.0222,-0.0254,-0.027,-0.0275,-0.0322,-0.0307,-0.0306,-0.0312,-0.0347,-0.0349,-0.0351,-0.0327,-0.0327,-0.0327,0,0,-0.0041,-0.0032,-0.0032,-0.0032,-0.0037,-0.0046,-0.0044,-0.0064,-0.0079,-0.0101,-0.0134,-0.0166,-0.0211,-0.0249,-0.0274,-0.0282,-0.031,-0.0291,-0.0287,-0.0319,-0.0321,-0.0323,-0.034,-0.0344,-0.0293,-0.0292,-0.0292,0,-0.0056,-0.0039,-0.0037,-0.0033,-0.0029,-0.004,-0.0039,-0.0058,-0.0087,-0.0096,-0.0106,-0.0176,-0.0213,-0.0259,-0.0267,-0.028,-0.0295,-0.0289,-0.0317,-0.032,-0.0322,-0.0339,-0.0344,-0.0291,-0.0291,-0.0291,-0.0291,0,-0.0057,-0.0043,-0.004,-0.0033,-0.0034,-0.0029,-0.0043,-0.0051,-0.0063,-0.0082,-0.0118,-0.0167,-0.0206,-0.0227,-0.0255,-0.0294,-0.0297,-0.0308,-0.032,-0.0323,-0.034,-0.0346,-0.0289,-0.029,-0.029,-0.029,0,0,-0.0085,-0.005,-0.0048,-0.0024,-0.0024,-0.0016,-0.0035,-0.0043,-0.0041,-0.0083,-0.0093,-0.0166,-0.0183,-0.0213,-0.025,-0.0289,-0.0322,-0.0307,-0.0309,-0.032,-0.0382,-0.0368,-0.0373,-0.0336,-0.0337,-0.0338,-0.0382,0,-0.0086,-0.0056,-0.005,-0.0022,0.0004,-0.0003,-0.0008,-0.002,-0.0036,-0.0048,-0.0108,-0.0131,-0.0181,-0.0192,-0.0243,-0.0298,-0.0338,-0.0309,-0.0381,-0.0383,-0.0368,-0.038,-0.0352,-0.0388,-0.0387,-0.0388,-0.0389,0,-0.0073,-0.0048,-0.002,0.0031,0.0038,0.0038,0.0057,0.005,0.002,0.0004,-0.0042,-0.0076,-0.0145,-0.0177,-0.0288,-0.0265,-0.0325,-0.0373,-0.0375,-0.038,-0.0381,-0.0388,-0.0398,-0.0398,-0.0398,-0.0397,-0.0396,0,-0.0039,-0.0012,0.0023,0.0035,0.0066,0.007,0.0079,0.0065,0.0079,0.0036,0.0043,-0.0044,-0.0065,-0.0169,-0.0265,-0.0277,-0.0373,-0.0399,-0.0446,-0.0445,-0.0446,-0.0443,-0.0481,-0.0481,-0.0481,-0.0481,-0.048,0,-0.0005,0.0031,0.0043,0.0071,0.0116,0.0114,0.0148,0.0141,0.0134,0.0167,0.0077,0.0088,-0.0063,-0.0128,-0.0242,-0.035,-0.0355,-0.045,-0.0461,-0.0433,-0.0428,-0.046,-0.0457,-0.0482,-0.0482,-0.0482,-0.0481,0,0.0047,0.0054,0.0109,0.0133,0.0143,0.0176,0.021,0.024,0.0217,0.0252,0.0247,0.019,0.0106,-0.0041,-0.0188,-0.0295,-0.0415,-0.0452,-0.0399,-0.0404,-0.0475,-0.047,-0.0524,-0.0524,-0.0524,-0.0524,-0.0524,0,0.0085,0.0114,0.0158,0.0188,0.0199,0.0239,0.0277,0.028,0.0317,0.0331,0.0365,0.03,0.028,0.0066,-0.0144,-0.0342,-0.0379,-0.0443,-0.0477,-0.0477,-0.0482,-0.0477,-0.0472,-0.0463,-0.0462,-0.0462,-0.0461,0,0.015,0.0156,0.0193,0.0256,0.0298,0.0356,0.0405,0.0458,0.0478,0.0516,0.0576,0.0563,0.0357,0.0174,-0.0108,-0.0244,-0.0416,-0.044,-0.0459,-0.045,-0.0422,-0.0426,-0.0423,-0.0458,-0.0458,-0.0458,-0.0459,-0.0459,0.0192,0.0228,0.0266,0.0331,0.0386,0.047,0.0544,0.0608,0.0703,0.0781,0.0748,0.0737,0.0488,0.015,-0.0097,-0.0365,-0.0374,-0.047,-0.0471,-0.0472,-0.0451,-0.0424,-0.0455,-0.0456,-0.0456,-0.0456,-0.0457,0,0.0236,0.0277,0.034,0.0423,0.0501,0.0511,0.0634,0.0716,0.0858,0.0913,0.0954,0.0746,0.0519,0.0235,-0.0159,-0.0399,-0.0428,-0.0465,-0.0456,-0.0457,-0.0459,-0.0438,-0.0439,-0.044,-0.044,-0.0441,0,0,0.0262,0.0332,0.0368,0.0506,0.0567,0.0688,0.0772,0.0895,0.0972,0.1055,0.105,0.0978,0.0623,0.0349,0.0011,-0.021,-0.0272,-0.0249,-0.0238,-0.0189,-0.0188,-0.0441,-0.0406,0,0,0,0,0]}],[{"header":{"parameterUnit":"m.s-1","parameterCategory":2,"la1":30.2991,"la2":30.254,"lo1":-89.0895,"lo2":-89.0444,"dy":0.0017,"dx":0.0017,"nx":28,"ny":28,"refTime":"2026-02-09T09:00:00:Z","depth":"4","parameterNumber":2,"parameterNumberName":"U-component_of_CURRENTS"},"data":[0,0,0,0,0,0,0,0,0,0,0,0,0,0,0,0,0,0,0,0,0,0,0,0,0,0,0,0,0,0,0,0,0,0,0,0,0,0,0,0,0,0,0,0,0,0,0,0,0,0,0,0,0,0,0,0,0,0,0.1147,0.1148,0,0.1185,0.1186,0.1186,0.1215,0.1216,0.1216,0.1217,0.1257,0.1258,0.1258,0,0,0,0,0,0,0,0,0,0,0,0,0,0.1074,0.1076,0.1147,0.1148,0.1149,0.1185,0.1186,0.1186,0.1215,0.1216,0.1216,0.1217,0.1257,0.1258,0.1258,0,0,0,0,0,0,0,0,0,0,0,0,0,0.1106,0.1076,0.1147,0.117,0.1173,0.1185,0.1186,0.1186,0.1215,0.1216,0.1217,0.1217,0.1257,0.1258,0.1258,0.1246,0,0,0.1261,0.1261,0,0,0,0,0,0,0,0,0.1104,0.1108,0.1166,0.1168,0.1172,0.1199,0.1175,0.1207,0.1215,0.1195,0.1217,0.1218,0.1239,0.1242,0.1242,0.1248,0.125,0.1261,0.1261,0.1262,0.1262,0,0,0,0,0,0,0,0.1102,0.1106,0.1159,0.1167,0.117,0.117,0.1175,0.1181,0.121,0.1197,0.12,0.1209,0.1241,0.1241,0.1244,0.125,0.1261,0.1262,0.1262,0.1262,0.1331,0.1332,0,0,0,0,0,0,0.1104,0.1104,0.1158,0.116,0.1143,0.1171,0.1177,0.1187,0.121,0.1215,0.1209,0.1211,0.124,0.1243,0.1245,0.1312,0.1262,0.1263,0.1263,0.1329,0.1331,0.1332,0,0,0,0,0,0,0.1102,0.1108,0.1156,0.1136,0.1142,0.1172,0.1183,0.1187,0.1213,0.1219,0.1224,0.1233,0.124,0.1244,0.1283,0.1311,0.1263,0.1264,0.1328,0.133,0.1332,0.1394,0,0,0,0,0,0,0.11,0.1107,0.1125,0.1136,0.1144,0.1179,0.1182,0.1187,0.1217,0.1221,0.1241,0.1244,0.1241,0.1282,0.1284,0.1311,0.1264,0.1326,0.1329,0.1331,0.1391,0.1398,0.1405,0,0,0,0,0,0.1097,0.1113,0.1126,0.1133,0.1164,0.118,0.1184,0.1205,0.1218,0.1231,0.1256,0.1245,0.1299,0.1284,0.1286,0.1314,0.1325,0.1328,0.1331,0.1387,0.1397,0.1405,0,0,0,0,0,0,0.109,0.1118,0.1132,0.1157,0.1176,0.1187,0.1207,0.1218,0.1246,0.1262,0.1263,0.1268,0.1313,0.1304,0.1288,0.1341,0.1309,0.1313,0.1351,0.136,0.1367,0.1357,0.1265,0,0,0,0,0,0.1097,0.1116,0.1141,0.1161,0.1178,0.1197,0.1211,0.1227,0.1249,0.1263,0.1279,0.1299,0.1321,0.1335,0.1349,0.1376,0.137,0.1395,0.1402,0.1408,0.1401,0.1426,0.1434,0.1342,0.1342,0.1342,0,0,0.1094,0.1118,0.1126,0.1161,0.1181,0.1202,0.1208,0.124,0.1261,0.1263,0.1306,0.1327,0.1335,0.1373,0.1391,0.1373,0.1434,0.1412,0.1417,0.1407,0.143,0.1439,0.1447,0.1344,0.1344,0.1343,0,0,0.1094,0.1128,0.1144,0.1166,0.1209,0.1223,0.1239,0.1269,0.1293,0.1332,0.1346,0.1381,0.1411,0.1422,0.143,0.1481,0.1473,0.1495,0.1521,0.1546,0.1554,0.156,0.1573,0.158,0.1496,0.1496,0.1496,0,0.1092,0.1118,0.115,0.1175,0.1197,0.1236,0.1256,0.1283,0.1322,0.1346,0.1357,0.1421,0.1428,0.147,0.1493,0.1496,0.1511,0.149,0.1555,0.1561,0.1567,0.1579,0.1586,0.15,0.1499,0.1499,0.1499,0,0.1097,0.1129,0.1144,0.1188,0.1216,0.1242,0.1286,0.1324,0.1362,0.1386,0.145,0.1473,0.1509,0.1523,0.1525,0.1575,0.1574,0.1565,0.1533,0.158,0.1589,0.1596,0.1505,0.1503,0.1502,0.1501,0,0,0.1053,0.113,0.1136,0.1164,0.1228,0.1248,0.1301,0.135,0.139,0.1442,0.1488,0.1535,0.1564,0.1574,0.1592,0.1613,0.1668,0.1614,0.1614,0.1625,0.173,0.1655,0.1654,0.1684,0.1686,0.1687,0.1725,0,0.1045,0.1092,0.1133,0.1176,0.1206,0.1264,0.1306,0.1362,0.1417,0.1475,0.1521,0.1574,0.158,0.1616,0.1642,0.1664,0.1687,0.1658,0.1684,0.1684,0.1609,0.1659,0.1691,0.1729,0.173,0.1731,0.1732,0,0.1028,0.1068,0.1112,0.1183,0.1202,0.1237,0.132,0.1364,0.1454,0.1502,0.1571,0.1613,0.1671,0.1665,0.1726,0.1717,0.173,0.1737,0.1738,0.1644,0.1619,0.1669,0.1743,0.1742,0.1741,0.174,0.174,0,0.0976,0.1047,0.1085,0.1108,0.1197,0.1234,0.1285,0.1375,0.1424,0.153,0.158,0.1655,0.1706,0.1737,0.1773,0.1761,0.1829,0.1804,0.1744,0.1738,0.1766,0.1759,0.1837,0.1837,0.1837,0.1837,0.1837,0,0.0941,0.0971,0.107,0.1088,0.114,0.1215,0.1281,0.1345,0.1445,0.1505,0.1597,0.1652,0.1732,0.1785,0.1795,0.1796,0.185,0.1751,0.1745,0.1793,0.1788,0.1771,0.1763,0.1839,0.1838,0.1838,0.1838,0,0.0876,0.0939,0.0984,0.1081,0.1119,0.1157,0.1272,0.1317,0.1426,0.1509,0.1549,0.1669,0.1742,0.1804,0.1857,0.1817,0.1823,0.1809,0.1867,0.1863,0.1707,0.1702,0.1727,0.1725,0.1723,0.1721,0.172,0,0.0845,0.0867,0.0965,0.0998,0.1046,0.1124,0.1177,0.1296,0.135,0.1505,0.1534,0.1652,0.1722,0.1734,0.1804,0.1826,0.1809,0.1794,0.1733,0.1705,0.1697,0.1695,0.1693,0.1716,0.1716,0.1715,0.1715,0,0.0787,0.0828,0.0866,0.0933,0.0992,0.1047,0.1136,0.1169,0.1308,0.1419,0.149,0.1543,0.1627,0.1679,0.1724,0.1731,0.1789,0.1772,0.1775,0.1718,0.1693,0.1686,0.1686,0.1708,0.1709,0.171,0.171,0,0.0743,0.075,0.0808,0.0857,0.0922,0.0952,0.101,0.1089,0.1159,0.134,0.136,0.1491,0.1606,0.1631,0.1666,0.1681,0.1647,0.158,0.1592,0.16,0.1545,0.1493,0.1446,0,0,0,0,0,0.0697,0.07,0.0735,0.0779,0.0833,0.0877,0.0977,0.1043,0.1187,0.1203,0.1282,0.1358,0.1432,0.1499,0.149,0.1608,0.1647,0.1589,0.1573,0.167,0.1678,0.1627,0,0,0,0,0,0,0.0668,0.0692,0.0704,0.0703,0.0724,0.0777,0.0837,0.0932,0.0957,0.1109,0.1158,0.1276,0.1367,0.1424,0.1463,0.1485,0.1447,0.1679,0.1675,0.1666,0.1673,0.1679,0.163,0,0,0,0,0]},{"header":{"parameterUnit":"m.s-1","parameterCategory":2,"la1":30.2991,"la2":30.254,"lo1":-89.0895,"lo2":-89.0444,"dy":0.0017,"dx":0.0017,"nx":28,"ny":28,"refTime":"2026-02-09T09:00:00:Z","depth":"4","parameterNumber":3,"parameterNumberName":"V-component_of_CURRENTS"},"data":[0,0,0,0,0,0,0,0,0,0,0,0,0,0,0,0,0,0,0,0,0,0,0,0,0,0,0,0,0,0,0,0,0,0,0,0,0,0,0,0,0,0,0,0,0,0,0,0,0,0,0,0,0,0,0,0,0,0,0.005,0.0049,0,0.0021,0.002,0.002,-0.0003,-0.0003,-0.0003,-0.0004,-0.0062,-0.0063,-0.0065,0,0,0,0,0,0,0,0,0,0,0,0,0,0.0049,0.005,0.005,0.0049,0.0049,0.0021,0.002,0.002,-0.0003,-0.0003,-0.0004,-0.0004,-0.0061,-0.0063,-0.0065,0,0,0,0,0,0,0,0,0,0,0,0,0,0.0037,0.005,0.005,0.0034,0.0033,0.0021,0.002,0.002,-0.0003,-0.0003,-0.0004,-0.0004,-0.0061,-0.0063,-0.0065,-0.0072,0,0,-0.0071,-0.0072,0,0,0,0,0,0,0,0,0.0038,0.0037,0.0037,0.0035,0.0034,0.0013,-0.0001,-0.0012,-0.0003,0.001,-0.0004,-0.0004,-0.0039,-0.0043,-0.0048,-0.0075,-0.0077,-0.0071,-0.0073,-0.0074,-0.0074,0,0,0,0,0,0,0,0.0039,0.0038,0.0038,0.0037,0.0035,0.0017,0.0015,-0.0004,-0.0014,0.0009,0.0007,0.0005,-0.004,-0.0046,-0.005,-0.0078,-0.0071,-0.0073,-0.0074,-0.0075,-0.0137,-0.0138,0,0,0,0,0,0,0.0046,0.0039,0.0039,0.0037,0.0036,0.0017,0.0015,0.0019,-0.0013,-0.0018,0.0005,0.0004,-0.0042,-0.0047,-0.0052,-0.0079,-0.0074,-0.0075,-0.0077,-0.0137,-0.0137,-0.0138,0,0,0,0,0,0,0.0046,0.0046,0.004,0.0037,0.0035,0.0018,0.0022,0.0019,0.0013,-0.0015,-0.0021,0.0003,-0.0043,-0.0049,-0.0071,-0.0081,-0.0076,-0.0078,-0.0136,-0.0137,-0.0138,-0.0122,0,0,0,0,0,0,0.0046,0.0047,0.005,0.0038,0.0036,0.0033,0.0022,0.0018,0.0012,0.001,-0.0019,-0.0025,-0.0044,-0.0068,-0.0073,-0.0084,-0.008,-0.0136,-0.0137,-0.0137,-0.0122,-0.0122,-0.0122,0,0,0,0,0,0.0047,0.005,0.005,0.005,0.0042,0.0033,0.003,0.0016,0.0012,0.001,-0.0011,-0.0024,-0.0077,-0.0069,-0.0076,-0.0087,-0.0135,-0.0136,-0.0137,-0.0122,-0.0122,-0.0122,0,0,0,0,0,0,0.0044,0.0047,0.0048,0.005,0.0044,0.003,0.0025,0.0019,0.0002,-0.0002,-0.0026,-0.0034,-0.0058,-0.0073,-0.0065,-0.0108,-0.0109,-0.0112,-0.0096,-0.0096,-0.0096,-0.0096,-0.0082,0,0,0,0,0,0.0049,0.0054,0.0052,0.0051,0.0052,0.004,0.0035,0.0028,0.0012,0.0005,-0.0015,-0.004,-0.0067,-0.008,-0.0103,-0.0123,-0.014,-0.0136,-0.0136,-0.0136,-0.0141,-0.0171,-0.0175,-0.0141,-0.0141,-0.0141,0,0,0.0044,0.0048,0.0049,0.0052,0.0046,0.0043,0.0036,0.003,0.0022,0.0,-0.0018,-0.004,-0.0071,-0.0097,-0.0109,-0.0111,-0.0153,-0.0137,-0.0137,-0.0142,-0.0173,-0.0176,-0.0179,-0.0141,-0.0141,-0.0141,0,0,0.0036,0.0046,0.0048,0.0049,0.0047,0.0043,0.0044,0.0034,0.0025,0.0009,-0.0014,-0.004,-0.0071,-0.0101,-0.0119,-0.0133,-0.0151,-0.0139,-0.0141,-0.0171,-0.0174,-0.0177,-0.0194,-0.0199,-0.014,-0.014,-0.014,0,0.0025,0.0042,0.0044,0.0047,0.0052,0.0045,0.0049,0.0035,0.0017,0.0011,0.0005,-0.005,-0.0077,-0.0116,-0.0125,-0.0134,-0.0148,-0.0137,-0.0171,-0.0174,-0.0177,-0.0194,-0.02,-0.014,-0.014,-0.014,-0.014,0,0.0025,0.0037,0.0039,0.0046,0.0046,0.0052,0.0043,0.0037,0.003,0.0016,-0.0015,-0.0052,-0.0084,-0.0101,-0.012,-0.0158,-0.0159,-0.0165,-0.0168,-0.0179,-0.0197,-0.0203,-0.0139,-0.0139,-0.0139,-0.0139,0,0,0.0012,0.0034,0.0037,0.0057,0.0056,0.0064,0.0048,0.0043,0.0045,0.0009,0.0002,-0.006,-0.0076,-0.0099,-0.0128,-0.0162,-0.0198,-0.0173,-0.0175,-0.0187,-0.0255,-0.0242,-0.0247,-0.0208,-0.0209,-0.0209,-0.0255,0,0.0016,0.0037,0.0041,0.0064,0.0085,0.0079,0.0074,0.0063,0.0049,0.0038,-0.0014,-0.0033,-0.0076,-0.0085,-0.0132,-0.0176,-0.0214,-0.0184,-0.0247,-0.0249,-0.0232,-0.0254,-0.0213,-0.026,-0.0261,-0.0262,-0.0263,0,0.0033,0.005,0.0073,0.011,0.0117,0.0119,0.0134,0.0127,0.0095,0.0083,0.0038,0.0007,-0.0056,-0.008,-0.0182,-0.016,-0.0211,-0.025,-0.0253,-0.0251,-0.0247,-0.025,-0.0273,-0.0272,-0.0272,-0.0271,-0.027,0,0.0067,0.0088,0.0116,0.0126,0.0144,0.0151,0.0158,0.014,0.015,0.0112,0.0116,0.0033,0.0009,-0.0081,-0.0171,-0.0174,-0.0273,-0.0282,-0.0323,-0.0321,-0.0325,-0.0322,-0.0358,-0.0357,-0.0357,-0.0357,-0.0357,0,0.0101,0.0129,0.0137,0.0159,0.0196,0.0192,0.0222,0.0212,0.0202,0.0218,0.0145,0.0137,0.0008,-0.0061,-0.0157,-0.0256,-0.0264,-0.033,-0.0338,-0.0316,-0.0311,-0.0329,-0.0325,-0.0359,-0.0359,-0.0358,-0.0358,0,0.0141,0.0147,0.0188,0.0208,0.0219,0.0245,0.0276,0.0297,0.0279,0.0296,0.029,0.0217,0.0124,-0.0003,-0.0139,-0.0218,-0.032,-0.0353,-0.0313,-0.0316,-0.0353,-0.0348,-0.0404,-0.0404,-0.0404,-0.0404,-0.0404,0,0.0164,0.0188,0.0226,0.0254,0.0264,0.03,0.0331,0.0333,0.0358,0.0348,0.0363,0.0283,0.0218,0.0044,-0.0105,-0.0286,-0.0315,-0.0366,-0.0381,-0.0359,-0.0361,-0.0355,-0.035,-0.0404,-0.0404,-0.0404,-0.0404,0,0.0203,0.0214,0.0243,0.0299,0.0338,0.0388,0.0429,0.0455,0.0461,0.0449,0.0433,0.0333,0.0228,0.0065,-0.0076,-0.0209,-0.0334,-0.0367,-0.0368,-0.0382,-0.0359,-0.036,-0.0355,-0.0404,-0.0404,-0.0404,-0.0404,0,0.0225,0.0251,0.0289,0.034,0.0396,0.0454,0.0475,0.0505,0.0527,0.0512,0.0505,0.0379,0.03,0.0105,-0.0025,-0.0156,-0.0196,-0.0239,-0.0248,-0.0249,-0.0199,-0.0147,-0.0138,0,0,0,0,0,0.0241,0.0275,0.0328,0.0385,0.0443,0.0476,0.0533,0.0547,0.0556,0.0559,0.0534,0.0436,0.0241,0.0153,0.0025,-0.0042,-0.023,-0.0197,-0.0285,-0.0404,-0.0404,-0.0372,0,0,0,0,0,0,0.0251,0.03,0.033,0.0412,0.0456,0.0524,0.0564,0.0573,0.0574,0.0561,0.0463,0.0404,0.0214,0.0314,0.0022,-0.002,-0.0093,-0.0294,-0.0296,-0.0405,-0.0404,-0.0404,-0.0371,0,0,0,0,0]}]]